| time (UTC) | temp C | wind direction | speed KPH | gust KPH | rain 1hr cm | rain 24hr cm | rain mn cm | humidity % | barometer mb |
| 20260505124511 | 7 | 274 | 0.0 | 3.2 | 0.00 | 0.00 | 0.00 | 87 | 1007.4 |
| 20260505123013 | 6 | 274 | 1.6 | 3.2 | 0.00 | 0.00 | 0.00 | 84 | 1007.8 |
| 20260505121527 | 5 | 274 | 0.0 | 3.2 | 0.00 | 0.00 | 0.00 | 88 | 1007.6 |
| 20260505120030 | 5 | 274 | 3.2 | 3.2 | 0.00 | 0.00 | 0.00 | 90 | 1007.9 |
| 20260505114505 | 5 | 264 | 0.0 | 3.2 | 0.00 | 0.00 | 0.00 | 90 | 1008.0 |
| 20260505113009 | 4 | 264 | 1.6 | 4.8 | 0.00 | 0.00 | 0.00 | 90 | 1008.2 |
| 20260505111513 | 3 | 94 | 1.6 | 1.6 | 0.00 | 0.00 | 0.00 | 92 | 1008.0 |
| 20260505101515 | 2 | 89 | 0.0 | 3.2 | 0.00 | 0.00 | 0.00 | 92 | 1007.8 |
| 20260505100016 | 2 | 89 | 0.0 | 1.6 | 0.00 | 0.00 | 0.00 | 92 | 1007.7 |
| 20260505094528 | 2 | 89 | 0.0 | 3.2 | 0.00 | 0.00 | 0.00 | 92 | 1007.7 |
| 20260505093029 | 1 | 89 | 0.0 | 1.6 | 0.00 | 0.00 | 0.00 | 92 | 1007.7 |
| 20260505091510 | 1 | 89 | 0.0 | 3.2 | 0.00 | 0.00 | 0.00 | 92 | 1007.8 |
| 20260505090013 | 1 | 89 | 0.0 | 3.2 | 0.00 | 0.00 | 0.00 | 92 | 1007.8 |
| 20260505084520 | 1 | 89 | 0.0 | 3.2 | 0.00 | 0.00 | 0.00 | 92 | 1007.7 |
| 20260505083027 | 2 | 89 | 0.0 | 1.6 | 0.00 | 0.00 | 0.00 | 92 | 1007.9 |
| 20260505081508 | 2 | 89 | 0.0 | 3.2 | 0.00 | 0.00 | 0.00 | 92 | 1007.9 |
| 20260505080028 | 2 | 89 | 1.6 | 3.2 | 0.00 | 0.00 | 0.00 | 92 | 1007.9 |
| 20260505074514 | 2 | 89 | 1.6 | 1.6 | 0.00 | 0.00 | 0.00 | 92 | 1007.8 |
| 20260505073021 | 2 | 89 | 1.6 | 1.6 | 0.00 | 0.00 | 0.00 | 91 | 1007.9 |
| 20260505071523 | 3 | 89 | 0.0 | 1.6 | 0.00 | 0.00 | 0.00 | 92 | 1007.9 |
| 20260505070009 | 3 | 89 | 0.0 | 0.0 | 0.00 | 0.00 | 0.00 | 92 | 1008.1 |
| 20260505064514 | 3 | 89 | 0.0 | 3.2 | 0.00 | 0.00 | 0.00 | 91 | 1008.0 |
| 20260505063018 | 3 | 89 | 0.0 | 3.2 | 0.00 | 0.00 | 0.00 | 92 | 1008.1 |
| 20260505061534 | 3 | 89 | 0.0 | 1.6 | 0.00 | 0.00 | 0.00 | 91 | 1008.1 |
| 20260505060030 | 3 | 89 | 1.6 | 3.2 | 0.00 | 0.00 | 0.00 | 92 | 1008.1 |
| 20260505054511 | 3 | 89 | 0.0 | 3.2 | 0.00 | 0.00 | 0.00 | 91 | 1008.1 |
| 20260505053017 | 3 | 89 | 1.6 | 1.6 | 0.00 | 0.00 | 0.00 | 91 | 1007.9 |
| 20260505051521 | 3 | 89 | 0.0 | 1.6 | 0.00 | 0.00 | 0.00 | 91 | 1007.8 |
| 20260505041527 | 5 | 89 | 0.0 | 3.2 | 0.00 | 0.00 | 0.00 | 90 | 1008.1 |
| 20260505040026 | 5 | 89 | 0.0 | 0.0 | 0.00 | 0.00 | 0.00 | 90 | 1008.3 |
| 20260505034532 | 5 | 89 | 0.0 | 3.2 | 0.00 | 0.00 | 0.00 | 91 | 1008.1 |
| 20260505033028 | 5 | 89 | 0.0 | 3.2 | 0.00 | 0.00 | 0.00 | 90 | 1008.1 |
| 20260505031518 | 5 | 89 | 0.0 | 3.2 | 0.00 | 0.00 | 0.00 | 90 | 1008.1 |
| 20260505030021 | 6 | 89 | 0.0 | 0.0 | 0.00 | 0.00 | 0.00 | 90 | 1008.1 |
| 20260505024538 | 6 | 89 | 0.0 | 0.0 | 0.00 | 0.00 | 0.00 | 90 | 1008.1 |
| 20260505023010 | 6 | 89 | 0.0 | 1.6 | 0.00 | 0.00 | 0.00 | 89 | 1008.1 |
| 20260505021517 | 6 | 89 | 0.0 | 1.6 | 0.00 | 0.00 | 0.00 | 90 | 1008.1 |
| 20260505020018 | 6 | 89 | 0.0 | 3.2 | 0.00 | 0.00 | 0.00 | 90 | 1008.0 |
| 20260505014525 | 6 | 89 | 0.0 | 3.2 | 0.00 | 0.00 | 0.00 | 88 | 1007.9 |
| 20260505013029 | 6 | 89 | 0.0 | 1.6 | 0.00 | 0.00 | 0.00 | 89 | 1008.0 |
| 20260505011508 | 6 | 89 | 1.6 | 3.2 | 0.00 | 0.00 | 0.00 | 89 | 1007.7 |
| 20260505010018 | 6 | 330 | 1.6 | 1.6 | 0.00 | 0.00 | 0.00 | 89 | 1007.5 |
| 20260505004522 | 6 | 330 | 0.0 | 3.2 | 0.00 | 0.00 | 0.00 | 87 | 1007.6 |
| 20260505003026 | 7 | 330 | 1.6 | 1.6 | 0.00 | 0.00 | 0.00 | 87 | 1007.3 |
| 20260505001534 | 7 | 330 | 1.6 | 3.2 | 0.00 | 0.00 | 0.00 | 87 | 1007.1 |
| 20260505000027 | 7 | 330 | 1.6 | 3.2 | 0.00 | 0.00 | 0.00 | 86 | 1006.9 |
| 20260504234516 | 8 | 330 | 1.6 | 1.6 | 0.00 | 0.00 | 0.00 | 85 | 1006.9 |
| 20260504233025 | 9 | 330 | 1.6 | 6.4 | 0.00 | 0.00 | 0.00 | 77 | 1006.8 |
| 20260504231531 | 11 | 315 | 6.4 | 11.3 | 0.00 | 0.00 | 0.00 | 69 | 1006.6 |
| 20260504230016 | 10 | 318 | 0.0 | 12.9 | 0.00 | 0.00 | 0.00 | 71 | 1006.2 |
| 20260504224517 | 11 | 340 | 3.2 | 14.5 | 0.00 | 0.00 | 0.00 | 70 | 1006.0 |
| 20260504223019 | 11 | 330 | 9.7 | 20.9 | 0.00 | 0.00 | 0.00 | 68 | 1005.9 |
| 20260504221524 | 11 | 327 | 9.7 | 17.7 | 0.00 | 0.00 | 0.00 | 69 | 1005.6 |
| 20260504220032 | 10 | 333 | 9.7 | 19.3 | 0.00 | 0.00 | 0.00 | 69 | 1005.6 |
| 20260504214512 | 11 | 326 | 12.9 | 17.7 | 0.00 | 0.00 | 0.00 | 69 | 1005.7 |
| 20260504213020 | 11 | 320 | 9.7 | 22.5 | 0.00 | 0.00 | 0.00 | 69 | 1005.6 |
| 20260504211524 | 11 | 352 | 12.9 | 22.5 | 0.00 | 0.00 | 0.00 | 69 | 1005.6 |
| 20260504210027 | 10 | 337 | 12.9 | 20.9 | 0.00 | 0.00 | 0.00 | 70 | 1005.6 |
| 20260504204528 | 10 | 310 | 11.3 | 17.7 | 0.00 | 0.00 | 0.00 | 72 | 1005.4 |
| 20260504203021 | 10 | 328 | 12.9 | 20.9 | 0.00 | 0.00 | 0.00 | 73 | 1005.5 |
| 20260504201522 | 10 | 323 | 12.9 | 22.5 | 0.00 | 0.00 | 0.00 | 74 | 1005.4 |
| 20260504200025 | 10 | 322 | 11.3 | 19.3 | 0.00 | 0.03 | 0.00 | 74 | 1005.4 |
| 20260504194537 | 10 | 317 | 16.1 | 24.1 | 0.00 | 0.03 | 0.00 | 73 | 1005.4 |
| 20260504193031 | 10 | 295 | 12.9 | 16.1 | 0.00 | 0.03 | 0.00 | 75 | 1005.4 |
| 20260504191516 | 8 | 293 | 8.0 | 14.5 | 0.00 | 0.03 | 0.00 | 79 | 1005.4 |
| 20260504190029 | 7 | 297 | 3.2 | 6.4 | 0.00 | 0.05 | 0.00 | 81 | 1005.5 |
| 20260504184533 | 8 | 278 | 4.8 | 8.0 | 0.00 | 0.08 | 0.00 | 80 | 1005.4 |
| 20260504183027 | 7 | 275 | 3.2 | 4.8 | 0.00 | 0.08 | 0.00 | 80 | 1005.4 |
| 20260504181516 | 7 | 275 | 3.2 | 6.4 | 0.00 | 0.10 | 0.00 | 79 | 1005.5 |
| 20260504180022 | 7 | 273 | 3.2 | 8.0 | 0.00 | 0.15 | 0.00 | 81 | 1005.4 |
| 20260504174504 | 7 | 278 | 4.8 | 6.4 | 0.00 | 0.15 | 0.00 | 81 | 1005.6 |
| 20260504173014 | 7 | 314 | 4.8 | 8.0 | 0.00 | 0.15 | 0.00 | 82 | 1005.6 |
| 20260504171516 | 7 | 316 | 6.4 | 11.3 | 0.00 | 0.15 | 0.00 | 81 | 1005.8 |